Regional Weather Roundup
Issued by NWS Cleveland, OH

Home | Current Version | Previous Version | Text Only | Print | Product List | Glossary Off
Versions: 1 2 3 4 5 6 7 8 9 10 11 12 13 14 15 16 17 18 19 20 21 22 23 24 25 26 27 28 29 30 31 32 33 34 35 36 37 38 39 40 41 42 43 44 45 46 47 48 49 50

000
ASUS41 KCLE 161312
RWRCLE
OHIO REGIONAL WEATHER ROUNDUP
NATIONAL WEATHER SERVICE WILMINGTON, OH
800 AM EST TUE JAN 16 2018

NOTE: "FAIR" INDICATES FEW OR NO CLOUDS BELOW 12,000 FEET WITH NO
SIGNIFICANT WEATHER AND/OR OBSTRUCTIONS TO VISIBILITY.

OHZ001>008-015>018-024>027-034-035-043-044-161400-
   NORTHWEST OHIO

CITY           SKY/WX    TMP DP  RH WIND       PRES   REMARKS
DEFIANCE       CLOUDY     2  -3  80 SW7       30.44R WCI -11
FINDLAY        CLOUDY     7   0  73 W15       30.42R WCI -10
TOLEDO EXPRESS LGT SNOW   5   1  83 W16       30.41S FOG     WCI -14
TOLEDO EXEC    CLOUDY     7   1  76 W15       30.43R WCI -10
LIMA           CLOUDY     3  -2  79 W13       30.42R WCI -14
$$

OHZ009>014-019>023-028>033-038-089-161400-
   NORTHEAST OHIO

CITY           SKY/WX    TMP DP  RH WIND       PRES   REMARKS
CLE-HOPKINS    FLURRIES  10   2  69 SW15      30.43R WCI  -7
CLE-LAKEFRONT  FLURRIES  14   7  73 SW12      30.41R WCI   0
CUY CO. ARPT   LGT SNOW  16  12  86 SW12      30.38R WCI   3
LORAIN-ELYRIA  CLOUDY     4  -4  69 W9        30.41S WCI -10
ASHTABULA      CLOUDY    17  15  92 NW6       30.37R WCI   9
AKRON-CANTON   FLURRIES  15  10  80 SW5       30.36R WCI   8
WOOSTER        CLOUDY     8   4  83 NW8       30.38R WCI  -4
MANSFIELD      MOCLDY     3  -2  79 SW9       30.37S WCI -12
YOUNGSTOWN     FLURRIES  22  19  89 S5        30.33S WCI  16
$$

OHZ042-051>053-060>062-070>072-077>081-161400-
  SOUTHWEST OHIO

CITY           SKY/WX    TMP DP  RH WIND       PRES   REMARKS
CINC-COVINGTON CLOUDY     8   1  73 W10       30.48R WCI  -6
CINC-LUNKEN    CLOUDY    10   2  69 VRB5      30.55R WCI   2
HAMILTON       FAIR       7   0  73 NW9       30.53R WCI  -7
DAYTON         MOCLDY     2  -2  83 W12       30.47R WCI -15
WRIGHT-PAT AFB CLOUDY     4  -3  69 W9        30.48R WCI -10
DAYTON GENERAL FAIR       5  -1  76 W7        30.47R WCI  -7
WILMINGTON     CLOUDY     6   1  80 W13       30.45R WCI -10
$$

OHZ036-037-039>041-045>050-054>059-063>069-073>076-082>088-161400-
  CENTRAL AND SOUTHEAST OHIO

CITY           SKY/WX    TMP DP  RH WIND       PRES   REMARKS
COLUMBUS       CLOUDY    10   4  76 W7        30.44S WCI  -1
OSU AIRPORT    CLOUDY     8   3  80 W6        30.44R WCI  -2
BOLTON FIELD   CLOUDY     9   3  78 W7        30.45R WCI  -3
RICKENBACK AFB CLOUDY    10   5  79 W10       30.46R WCI  -4
NEWARK         CLOUDY    10   4  76 W7        30.43R WCI  -1
MARION         CLOUDY     5  -1  76 W9        30.42S WCI  -9
LANCASTER      CLOUDY    11   5  77 W5        30.45R WCI   3
ZANESVILLE     LGT SNOW  15  10  80 W7        30.41R WCI   5
NEW PHILLY     CLOUDY    20  15  81 W9        30.39R WCI   9
$$



USA.gov is the U.S. government's official web portal to all federal, state and local government web resources and services.